Weather History for Miyakojima, Japan

Change the Weather History Date:

Saturday, January 19, 2013

  Actual Average Record
Temperature  
Mean Temperature 63 °F -  
Max Temperature 67 °F 69 °F - ()
Min Temperature 58 °F 60 °F - ()
Degree Days  
Heating Degree Days 2    
Growing Degree Days 13 (Base 50)    
Moisture  
Dew Point 48 °F    
Average Humidity 54    
Maximum Humidity 64    
Minimum Humidity 42    
Precipitation  
Precipitation 0.00 in 0.18 in - ()
Sea Level Pressure  
Sea Level Pressure 30.26 in    
Wind  
Wind Speed 8 mph ()    
Max Wind Speed 15 mph    
Max Gust Speed -    
Visibility 9.7 miles    
Events Rain    
T = Trace of Precipitation, MM = Missing Value Source: Averaged Metar Reports

Daily Weather History Graph

Daily Weather History Graph

Search for Another Location

Airport:

Trip Planner

Search our weather history database for the weather conditions in past years. The results will help you decide how hot, cold, wet, or windy it might be!

Date:

Astronomy

Jan. 19, 2013 Rise Set
Actual Time 7:25 AM JST 6:14 PM JST
Civil Twilight 7:00 AM JST 6:38 PM JST
Nautical Twilight 6:32 AM JST 7:06 PM JST
Astronomical Twilight 6:05 AM JST 7:34 PM JST
Moon 12:10 PM JST (1/19) 12:36 AM JST (1/19)
Length of Visible Light 11h 38m
Length of Day
10h 49m
Waxing Crescent, 51% of the Moon is Illuminated
Jan 19
Waxing Crescent
Jan 27
Full
Feb 3
Last Quarter
Feb 10
New
Feb 18
First Quarter

Hourly Weather History & Observations

Time (JST) Temp. Dew Point Humidity Pressure Visibility Wind Dir Wind Speed Gust Speed Precip Events Conditions
12:00 AM 60 °F 48 °F 55% 30.31 in - NE 10.4 mph - -  
3:00 AM 60 °F 47 °F 52% 30.28 in 12 mi NE 6.9 mph - -   Partly Cloudy
6:00 AM 61 °F 46 °F 46% 30.30 in 12 mi NE 6.9 mph - -   Partly Cloudy
6:30 AM 59.0 °F 42.8 °F 55% 30.27 in 6.2 mi NE 5.8 mph - N/A   Mostly Cloudy
7:00 AM 59.0 °F 42.8 °F 55% 30.27 in 6.2 mi NE 8.1 mph - N/A   Scattered Clouds
8:00 AM 57.2 °F 41.0 °F 55% 30.30 in 6.2 mi NE 4.6 mph - N/A   Partly Cloudy
9:00 AM 62 °F 45 °F 42% 30.33 in 19 mi NE 4.6 mph - -   Partly Cloudy
9:00 AM 64.4 °F 42.8 °F 45% 30.30 in - NNE 3.5 mph - N/A   Clear
10:00 AM 66.2 °F 42.8 °F 43% 30.30 in - NE 6.9 mph - N/A   Clear
11:00 AM 66.2 °F 46.4 °F 49% 30.30 in 6.2 mi NE 6.9 mph - N/A   Partly Cloudy
12:00 PM 66 °F 50 °F 45% 30.31 in 19 mi ENE 8.1 mph - -   Partly Cloudy
12:00 PM 68.0 °F 48.2 °F 49% 30.27 in 6.2 mi ENE 10.4 mph - N/A   Scattered Clouds
2:00 PM 68.0 °F 48.2 °F 49% 30.21 in 6.2 mi NE 11.5 mph - N/A   Mostly Cloudy
3:00 PM 65 °F 51 °F 50% 30.24 in 16 mi NE 12.7 mph - -   Mostly Cloudy
3:00 PM 66.2 °F 50.0 °F 56% 30.21 in 6.2 mi NE 12.7 mph - N/A   Mostly Cloudy
4:00 PM 66.2 °F 51.8 °F 60% 30.21 in 6.2 mi NE 12.7 mph - N/A   Mostly Cloudy
5:00 PM 64.4 °F 51.8 °F 64% 30.18 in 6.2 mi NE 12.7 mph - N/A   Mostly Cloudy
6:00 PM 65 °F 54 °F 59% 30.24 in 16 mi ENE 12.7 mph - -   Mostly Cloudy
6:00 PM 64.4 °F 51.8 °F 64% 30.21 in 6.2 mi ENE 13.8 mph - N/A   Mostly Cloudy
7:00 PM 64.4 °F 51.8 °F 64% 30.21 in 6.2 mi ENE 15.0 mph - N/A   Mostly Cloudy
8:00 PM 64.4 °F 51.8 °F 64% 30.24 in 6.2 mi ENE 13.8 mph - N/A   Mostly Cloudy
9:00 PM 65 °F 55 °F 61% 30.29 in 16 mi ENE 15.0 mph - - Rain Light Rain Showers